Weather in Ascona

Switzerland     46°09′15″N   8°46′29″E
temp.,
°C
wind,
m/s
gust,
m/s
humid.,
%
clouds,
%
prec.,
mm/h
press.,
hPa
HPBL,
m
12 april, mon
mon1223:00+2s0199100 1.4 1020263
02:00+2sw0099100 3.9 1020203
05:00+1ne1199100 3.4 1018180
08:00+1n1299100 9.1 1017114
11:00+1n2597100 9.3 1019332
14:00+1n3586100 12.3 1020621
17:00+2nne3580100 1.1 1019913
20:00−1n4583100 1.1 1021159
13 april, tue
tue1323:00−5n468464 0.0 1025132
02:00−7n468378 0.0 1026141
05:00−8n57823 0.0 1026143
08:00−6n46783 0.0 1026198
11:00+1nne34510 0.0 10241018
14:00+4nne34484 0.0 10221554
17:00+4n34495 0.0 10211618
20:00−2n34814 0.0 102559
14 april, wed
wed1423:00−6n45824 0.0 102996
02:00−7n35823 0.0 103098
05:00−8n35792 0.0 1029106
08:00−5n34661 0.0 1028154
11:00+3e11450 0.0 1024919
14:00+6se114026 0.0 10211901
17:00+5ese114299 0.1 10191859
20:000nnw2383100 1.3 1022160
15 april, thu
thu1523:00−3nnw348689 1.3 1026124
02:00−6nnw348563 1.3 102790
05:00−7nnw348414 0.0 102785
08:00−5n33725 0.0 1026133
11:00+2sse11503 0.0 10221092
14:00+5s214575 0.1 10201886
17:00+4s215258 0.3 10181408
20:000wnw0192100 1.3 102133
16 april, fri
fri1623:00−1n1197100 2.1 1022129
02:00−2nne1298100 6.0 1023126
05:00−4n229488 0.4 102340
08:00−3n228773 0.4 1023102
11:00+2s117863 0.1 1020831
14:00+5s116671 0.4 10181399
17:00+5s216653 0.5 10171143
20:000nw119014 0.7 101910